User: anonymous   Login
Location: Acton
(51.4942°N, 0.2232°W)
Time: 10:17:50
(UTC+00:00)
Language:

Cosmos 1975 Rocket - Orbit

View from above orbital plane
View from above orbital plane
View from above satellite
View from above satellite

Ground track
Ground track

The orbit data is extracted from the following two-line orbital elements,

1 19574U 88093B   21209.91753497  .00000087  00000-0  76560-5 0  9997
2 19574  82.5324 179.9517 0021025 197.7461 217.8253 14.83378371751125
Epoch (UTC): 28 July 2021 22:01:15
Eccentricity: 0.0021025
inclination: 82.5324°
perigee height: 604 km
apogee height: 633 km
right ascension of ascending node: 179.9517°
argument of perigee: 197.7461°
revolutions per day: 14.83378371
mean anomaly at epoch: 217.8253°
orbit number at epoch: 75112

The dashed part of the orbit path shows where the satellite is in the earth's shadow,  

DLR